• In Germany
  • List of Countries
  • For 7 days
  • Water Temperature
  • Satellite Maps
  • Weather Map
  • Weather Widgets
  • user-avatar
    Login

    Hourly Weather Melbourne

    Today, 27 March, Monday

    Time Temperature Precipitation Wind Pressure Humidity
    00:00 +21°C° 0 mm 2 mps 756 mmHg 73%
    01:00 +21°C° 0 mm 2 mps 755 mmHg 69%
    02:00 +22°C° 0 mm 3 mps 755 mmHg 68%
    03:00 +22°C° 0 mm 3 mps 754 mmHg 66%
    04:00 +24°C° 0 mm 6 mps 754 mmHg 61%
    05:00 +24°C° 0 mm 6 mps 753 mmHg 60%
    06:00 +25°C° 0 mm 5 mps 753 mmHg 58%
    07:00 +26°C° 0 mm 5 mps 753 mmHg 57%
    08:00 +27°C° 0.1 mm 6 mps 753 mmHg 54%
    09:00 +28°C° 0.1 mm 6 mps 753 mmHg 50%
    10:00 +30°C° 0.1 mm 6 mps 753 mmHg 47%
    11:00 +32°C° 0 mm 5 mps 753 mmHg 44%
    12:00 +33°C° 0 mm 5 mps 753 mmHg 42%
    13:00 +34°C° 0 mm 5 mps 753 mmHg 39%
    14:00 +30°C° 0.8 mm 4 mps 754 mmHg 52%
    15:00 +27°C° 0.8 mm 4 mps 754 mmHg 65%
    16:00 +23°C° 0.8 mm 4 mps 755 mmHg 77%
    17:00 +22°C° 0 mm 3 mps 756 mmHg 78%
    18:00 +20°C° 0 mm 3 mps 756 mmHg 79%
    19:00 +19°C° 0 mm 2 mps 757 mmHg 80%
    20:00 +18°C° 0 mm 2 mps 757 mmHg 81%
    21:00 +17°C° 0 mm 2 mps 758 mmHg 83%
    22:00 +16°C° 0 mm 2 mps 758 mmHg 84%
    23:00 +15°C° 0 mm 2 mps 758 mmHg 85%

    Tomorrow, 28 March, Tuesday

    Time Temperature Precipitation Wind Pressure Humidity
    00:00 +15°C° 0 mm 1 mps 758 mmHg 86%
    01:00 +14°C° 0 mm 1 mps 758 mmHg 87%
    02:00 +14°C° 0 mm 1 mps 758 mmHg 88%
    03:00 +14°C° 0 mm 2 mps 758 mmHg 88%
    04:00 +13°C° 0 mm 2 mps 758 mmHg 89%
    05:00 +13°C° 0 mm 2 mps 758 mmHg 89%
    06:00 +13°C° 0 mm 1 mps 759 mmHg 90%
    07:00 +13°C° 0 mm 1 mps 759 mmHg 90%
    08:00 +15°C° 0 mm 1 mps 759 mmHg 79%
    09:00 +18°C° 0 mm 1 mps 759 mmHg 68%
    10:00 +21°C° 0 mm 1 mps 759 mmHg 57%
    11:00 +22°C° 0 mm 1 mps 759 mmHg 52%
    12:00 +24°C° 0 mm 1 mps 759 mmHg 47%
    13:00 +25°C° 0 mm 1 mps 758 mmHg 42%
    14:00 +25°C° 0 mm 1 mps 758 mmHg 41%
    15:00 +25°C° 0 mm 1 mps 757 mmHg 41%
    16:00 +26°C° 0 mm 1 mps 757 mmHg 40%
    17:00 +23°C° 0 mm 1 mps 757 mmHg 53%
    18:00 +20°C° 0 mm 1 mps 757 mmHg 65%
    19:00 +16°C° 0 mm 1 mps 758 mmHg 77%
    20:00 +15°C° 0 mm 1 mps 758 mmHg 80%
    21:00 +15°C° 0 mm 1 mps 758 mmHg 82%
    22:00 +14°C° 0 mm 1 mps 758 mmHg 85%
    23:00 +14°C° 0 mm 1 mps 758 mmHg 87%

    Day after tomorrow, 29 March, Wednesday

    Time Temperature Precipitation Wind Pressure Humidity
    00:00 +13°C° 0 mm 1 mps 758 mmHg 88%
    01:00 +12°C° 0 mm 0 mps 758 mmHg 90%
    02:00 +14°C° 0 mm 1 mps 757 mmHg 87%
    03:00 +14°C° 0 mm 1 mps 757 mmHg 84%
    04:00 +14°C° 0 mm 1 mps 757 mmHg 81%
    05:00 +14°C° 0 mm 1 mps 757 mmHg 80%
    06:00 +14°C° 0 mm 2 mps 757 mmHg 79%
    07:00 +14°C° 0 mm 2 mps 757 mmHg 79%
    08:00 +17°C° 0 mm 2 mps 757 mmHg 70%
    09:00 +19°C° 0 mm 3 mps 757 mmHg 61%
    10:00 +22°C° 0 mm 3 mps 757 mmHg 52%
    11:00 +24°C° 0 mm 3 mps 756 mmHg 49%
    12:00 +25°C° 0 mm 3 mps 756 mmHg 45%
    13:00 +26°C° 0 mm 3 mps 755 mmHg 42%
    14:00 +26°C° 0 mm 3 mps 754 mmHg 42%
    15:00 +27°C° 0 mm 3 mps 754 mmHg 41%
    16:00 +27°C° 0 mm 3 mps 753 mmHg 41%
    17:00 +25°C° 0 mm 3 mps 754 mmHg 49%
    18:00 +22°C° 0 mm 3 mps 754 mmHg 56%
    19:00 +20°C° 0 mm 3 mps 755 mmHg 64%
    20:00 +18°C° 0.7 mm 4 mps 755 mmHg 73%
    21:00 +17°C° 0.7 mm 4 mps 756 mmHg 82%
    22:00 +15°C° 0.7 mm 4 mps 757 mmHg 91%
    23:00 +14°C° 1.9 mm 4 mps 758 mmHg 92%

    30 March, Thursday

    Time Temperature Precipitation Wind Pressure Humidity
    00:00 +13°C° 1.9 mm 3 mps 758 mmHg 92%
    01:00 +13°C° 1.9 mm 3 mps 758 mmHg 93%
    02:00 +13°C° 0.4 mm 3 mps 759 mmHg 92%
    03:00 +12°C° 0.4 mm 3 mps 759 mmHg 92%
    04:00 +12°C° 0.4 mm 3 mps 759 mmHg 91%
    05:00 +12°C° 0.1 mm 3 mps 760 mmHg 91%
    06:00 +11°C° 0.1 mm 3 mps 760 mmHg 91%
    07:00 +10°C° 0.1 mm 3 mps 761 mmHg 91%
    08:00 +12°C° 0.1 mm 3 mps 761 mmHg 83%
    09:00 +13°C° 0.1 mm 3 mps 762 mmHg 75%
    10:00 +14°C° 0.1 mm 3 mps 762 mmHg 68%
    11:00 +16°C° 0.1 mm 3 mps 762 mmHg 64%
    12:00 +15°C° 0.1 mm 4 mps 762 mmHg 59%
    13:00 +17°C° 0.1 mm 4 mps 762 mmHg 55%
    14:00 +17°C° 0.1 mm 4 mps 762 mmHg 56%
    15:00 +17°C° 0.1 mm 4 mps 762 mmHg 57%
    16:00 +17°C° 0.1 mm 4 mps 762 mmHg 58%
    17:00 +14°C° 0 mm 3 mps 762 mmHg 63%
    18:00 +13°C° 0 mm 3 mps 763 mmHg 69%
    19:00 +12°C° 0 mm 3 mps 764 mmHg 75%
    20:00 +13°C° 0 mm 2 mps 764 mmHg 76%
    21:00 +13°C° 0 mm 2 mps 765 mmHg 78%
    22:00 +12°C° 0 mm 2 mps 765 mmHg 79%
    23:00 +12°C° 0 mm 2 mps 765 mmHg 81%

    31 March, Friday

    Time Temperature Precipitation Wind Pressure Humidity
    00:00 +12°C° 0 mm 2 mps 765 mmHg 83%
    01:00 +10°C° 0 mm 2 mps 765 mmHg 84%
    02:00 +10°C° 0 mm 2 mps 764 mmHg 85%
    03:00 +10°C° 0 mm 2 mps 764 mmHg 86%
    04:00 +10°C° 0 mm 2 mps 764 mmHg 87%
    05:00 +10°C° 0 mm 2 mps 764 mmHg 87%
    06:00 +11°C° 0 mm 1 mps 765 mmHg 87%
    07:00 +11°C° 0 mm 1 mps 765 mmHg 87%
    08:00 +12°C° 0 mm 1 mps 765 mmHg 78%
    09:00 +14°C° 0 mm 2 mps 765 mmHg 70%
    10:00 +16°C° 0 mm 2 mps 765 mmHg 61%
    11:00 +16°C° 0 mm 2 mps 764 mmHg 58%
    12:00 +17°C° 0 mm 2 mps 764 mmHg 55%
    13:00 +18°C° 0 mm 2 mps 763 mmHg 53%
    14:00 +17°C° 0 mm 2 mps 763 mmHg 54%
    15:00 +17°C° 0 mm 2 mps 763 mmHg 55%
    16:00 +17°C° 0 mm 2 mps 763 mmHg 57%
    17:00 +15°C° 0 mm 2 mps 763 mmHg 63%
    18:00 +14°C° 0 mm 2 mps 764 mmHg 70%
    19:00 +12°C° 0 mm 2 mps 764 mmHg 76%
    20:00 +12°C° 0 mm 2 mps 764 mmHg 78%
    21:00 +12°C° 0 mm 2 mps 765 mmHg 80%
    22:00 +12°C° 0 mm 1 mps 765 mmHg 81%
    23:00 +12°C° 0 mm 2 mps 765 mmHg 82%

    1 April, Saturday

    Time Temperature Precipitation Wind Pressure Humidity
    00:00 +12°C° 0 mm 2 mps 765 mmHg 82%
    01:00 +12°C° 0 mm 2 mps 764 mmHg 82%
    02:00 +10°C° 0 mm 2 mps 764 mmHg 84%
    03:00 +10°C° 0 mm 2 mps 764 mmHg 86%
    04:00 +10°C° 0 mm 2 mps 764 mmHg 89%
    05:00 +10°C° 0 mm 2 mps 765 mmHg 90%
    06:00 +10°C° 0 mm 2 mps 765 mmHg 91%
    07:00 +10°C° 0 mm 2 mps 766 mmHg 93%
    08:00 +12°C° 0.1 mm 2 mps 766 mmHg 90%
    09:00 +12°C° 0.1 mm 3 mps 766 mmHg 87%
    10:00 +13°C° 0.1 mm 3 mps 767 mmHg 84%
    11:00 +14°C° 0.1 mm 3 mps 767 mmHg 79%
    12:00 +16°C° 0.1 mm 3 mps 767 mmHg 74%
    13:00 +15°C° 0.1 mm 4 mps 767 mmHg 69%
    14:00 +15°C° 0 mm 4 mps 767 mmHg 66%
    15:00 +16°C° 0 mm 3 mps 767 mmHg 64%
    16:00 +16°C° 0 mm 3 mps 767 mmHg 61%
    17:00 +14°C° 0 mm 3 mps 767 mmHg 65%
    18:00 +13°C° 0 mm 3 mps 768 mmHg 70%
    19:00 +13°C° 0 mm 2 mps 768 mmHg 74%
    20:00 +13°C° 0 mm 2 mps 769 mmHg 76%
    21:00 +12°C° 0 mm 2 mps 769 mmHg 77%
    22:00 +12°C° 0 mm 2 mps 769 mmHg 79%
    23:00 +12°C° 0 mm 2 mps 769 mmHg 80%
    Show more